Regional Weather Roundup
Issued by NWS

Home | Current Version | Previous Version | Graphics & Text | Print | Product List | Glossary On
Versions: 1 2 3 4 5 6 7 8 9 10 11 12 13 14 15 16 17 18 19 20 21 22 23 24 25 26 27 28 29 30 31 32 33 34 35 36 37 38 39 40 41 42 43 44 45 46 47 48 49 50
000
ASUS45 KCYS 211810
RWRWY

WYOMING REGIONAL WEATHER ROUNDUP
NATIONAL WEATHER SERVICE CHEYENNE WY
1200 PM MDT SUN MAY 21 2017

NOTE:  "FAIR" INDICATES FEW OR NO CLOUDS BELOW 12,000 FEET
WITH NO SIGNIFICANT WEATHER AND/OR OBSTRUCTIONS TO VISIBILITY.

WYZ001-211900-
YELLOWSTONE NATIONAL PARK

CITY           SKY/WX    TMP DP  RH WIND       PRES   REMARKS
LK YELLOWSTONE   N/A     47  25  42 MISG      30.34R
6HR MIN TEMP:  29; 6HR MAX TEMP:  47;

W YELLOWSTONE  NOT AVBL

$$
WYZ002>013-054>058-071-098>099-211900-
NORTHERN WYOMING

CITY           SKY/WX    TMP DP  RH WIND       PRES   REMARKS
JACKSON        MOSUNNY   55  30  38 N13       30.26S
CODY           FAIR      58  35  42 N12       30.25S
GREYBULL       PTSUNNY   61  33  35 NW15      30.20S
6HR MIN TEMP:  42; 6HR MAX TEMP:  63;

WORLAND        FAIR      62  38  40 NW16G22   30.21S
6HR MIN TEMP:  44; 6HR MAX TEMP:  62;

SHERIDAN       FAIR      61  40  45 NW18      30.20S
6HR MIN TEMP:  47; 6HR MAX TEMP:  62;

BUFFALO        FAIR      60  36  40 NW25G38   30.20F
6HR MIN TEMP:  46; 6HR MAX TEMP:  60; 6HR PCP: TRACE;

GILLETTE       PTSUNNY   57  41  55 NW17G24   30.15F
6HR MIN TEMP:  44; 6HR MAX TEMP:  59; 6HR PCP:  0.01;

HULETT         MOCLDY    55  37  50 NW8       30.15F
NEWCASTLE      FAIR      55  36  47 NW12G20   30.16S

$$
WYZ014>020-022>026-101>103-211900-
CENTRAL WYOMING

CITY           SKY/WX    TMP DP  RH WIND       PRES   REMARKS
BIG PINEY      CLOUDY    52  33  48 NW5       30.26S
6HR MIN TEMP:  31; 6HR MAX TEMP:  55;

PINEDALE       CLOUDY    50  30  46 NW7       30.27S
DUBOIS         NOT AVBL
LANDER         CLOUDY    47  40  76 W7        30.28R
6HR MIN TEMP:  43; 6HR MAX TEMP:  47; 6HR PCP: TRACE;

RIVERTON       CLOUDY    50  38  63 CALM      30.27R
6HR MIN TEMP:  45; 6HR MAX TEMP:  50; 6HR PCP:  0.01;

CASPER         LGT RAIN  48  37  65 NW7G30    30.22R
6HR MIN TEMP:  38; 6HR MAX TEMP:  56; 6HR PCP: TRACE;

DOUGLAS        LGT RAIN  51  41  68 NW6       30.20S
6HR MIN TEMP:  43; 6HR MAX TEMP:  59; 6HR PCP: TRACE;


$$
WYZ021-027>030-104>119-211900-
SOUTHERN WYOMING

CITY           SKY/WX    TMP DP  RH WIND       PRES   REMARKS
EVANSTON         N/A     52  37  56 MISG      30.25S
6HR MIN TEMP:  39; 6HR MAX TEMP:  52;

KEMMERER       RAIN      45  34  65 N7        30.26R
FORT BRIDGER   FAIR      54  35  47 N5        30.27F
ROCK SPRINGS   PTSUNNY   54  36  50 VRB3      30.23S
6HR MIN TEMP:  37; 6HR MAX TEMP:  57;

RAWLINS        PTSUNNY   54  36  50 MISG      30.24F
6HR MIN TEMP:  40; 6HR MAX TEMP:  54;

SARATOGA       CLOUDY    52  34  50 NW6G20    30.25R
LARAMIE        CLOUDY    45  38  76 N16G22    30.25R
6HR MIN TEMP:  33; 6HR MAX TEMP:  48; 6HR PCP: TRACE;

CHEYENNE       FAIR      52  35  52 N8        30.22F
6HR MIN TEMP:  38; 6HR MAX TEMP:  53; 6HR PCP: TRACE;

TORRINGTON     PTSUNNY   59  39  47 N10G21    30.15F
6HR MIN TEMP:  37; 6HR MAX TEMP:  64;

PINE BLUFFS    MOCLDY    55  36  47 W9        30.21F

$$



USA.gov is the U.S. government's official web portal to all federal, state and local government web resources and services.